This is the latest recevied weather packets stored in our database for station/object DF2AP-13. If no packets are shown the sender has not sent any weather packets the latest 10 day(s).
| Time | Temp. | Humidity | Pressure | Rain* | Wind** | Luminosity | Snow |
|---|---|---|---|---|---|---|---|
| 1777702527 | 8.89° C | 84% | 1025.4 hPa | - | - | - | - |
| 1777701927 | 8.33° C | 86% | 1025.4 hPa | - | - | - | - |
| 1777701327 | 7.78° C | 87% | 1025.6 hPa | - | - | - | - |
| 1777700727 | 7.22° C | 88% | 1025.7 hPa | - | - | - | - |
| 1777700127 | 6.67° C | 89% | 1025.9 hPa | - | - | - | - |
| 1777699527 | 6.11° C | 90% | 1025.9 hPa | - | - | - | - |
| 1777698927 | 5.56° C | 91% | 1025.9 hPa | - | - | - | - |
| 1777698332 | 5° C | 91% | 1026.1 hPa | - | - | - | - |
| 1777697727 | 4.44° C | 90% | 1026.2 hPa | - | - | - | - |
| 1777697127 | 4.44° C | 90% | 1026 hPa | - | - | - | - |
| 1777696527 | 4.44° C | 90% | 1026 hPa | - | - | - | - |
| 1777695927 | 4.44° C | 90% | 1025.9 hPa | - | - | - | - |
| 1777695327 | 4.44° C | 89% | 1026.1 hPa | - | - | - | - |
| 1777694727 | 5° C | 91% | 1026 hPa | - | - | - | - |
| 1777694127 | 5° C | 90% | 1026 hPa | - | - | - | - |
| 1777693527 | 5° C | 90% | 1026.1 hPa | - | - | - | - |
| 1777692927 | 5° C | 88% | 1026.2 hPa | - | - | - | - |
| 1777692327 | 5° C | 87% | 1026.3 hPa | - | - | - | - |
| 1777691727 | 5° C | 88% | 1026.4 hPa | - | - | - | - |
| 1777691127 | 5° C | 86% | 1026.5 hPa | - | - | - | - |
| 1777690527 | 5° C | 85% | 1026.6 hPa | - | - | - | - |
| 1777689927 | 5.56° C | 86% | 1026.6 hPa | - | - | - | - |
| 1777689327 | 5.56° C | 85% | 1026.7 hPa | - | - | - | - |
| 1777688727 | 5.56° C | 84% | 1026.8 hPa | - | - | - | - |
| 1777688127 | 6.11° C | 84% | 1026.7 hPa | - | - | - | - |
* Rain since midnight (hover to see other rain measurements)
** Current wind speed in m/s (hover to see current wind gust speed)